Zurück zum Katalog

STARLINK-35492

AktivKommunikationVLEO
NORAD 65926·PAYLOAD·🇺🇸 United States

Gestartet Oct 8, 2025 von Vandenberg Space Force Base

Loading…

Nächste Überflüge (nächste 24 Stunden)

TLE

AktuellSource: CelesTrak SupGP

Epoche: Sep 15, 2026, 03:06 UTC

1 65926C 25225S   26258.12965278  .00069120  00000+0  20413-2 0  2584
2 65926  53.1595   2.5926 0001093  83.8895  26.8599 15.34369952    13

Verfolge STARLINK-35492 in Echtzeit mit AllMySat

Download on the App Store